FW7478 Weather Reports


time (UTC)temp
C
wind
direction
speed
KPH
gust
KPH
rain 1hr
cm
rain 24hr
cm
rain mn
cm
humidity
%
barometer
mb
20260507031513 12 156 3.2 11.3 0.00 0.38 0.38 80 1015.2
20260507030013 12 155 4.8 14.5 0.00 0.38 0.38 80 1015.0
20260507024511 12 135 1.6 4.8 0.00 0.38 0.38 80 1014.7
20260507023010 12 135 0.0 3.2 0.00 0.38 0.38 79 1014.5
20260507021514 13 134 0.0 3.2 0.00 0.38 0.38 76 1014.3
20260507020007 13 132 3.2 11.3 0.00 0.38 0.38 75 1014.0
20260507014507 13 126 3.2 6.4 0.00 0.38 0.38 74 1014.1
20260507013004 14 127 3.2 14.5 0.00 0.38 0.38 72 1013.7
20260507011503 15 115 3.2 11.3 0.00 0.38 0.38 72 1013.7
20260507010001 15 107 3.2 16.1 0.00 0.38 0.38 70 1013.5
20260507004501 16 136 4.8 16.1 0.00 0.38 0.38 70 1013.4
20260507003100 16 123 8.0 19.3 0.00 0.38 0.38 68 1013.2
20260507001616 16 121 6.4 20.9 0.00 0.38 0.38 68 1012.9
20260506234603 17 112 9.7 19.3 0.00 0.38 0.38 66 1012.5
20260506233058 18 129 6.4 20.9 0.00 0.38 0.38 64 1012.3
20260506231558 18 104 8.0 16.1 0.00 0.38 0.38 64 1012.1
20260506230057 19 98 6.4 24.1 0.00 0.38 0.38 62 1012.0
20260506224556 20 119 8.0 19.3 0.00 0.38 0.38 61 1011.7
20260506223055 20 132 9.7 24.1 0.00 0.38 0.38 60 1011.7
20260506221554 20 102 12.9 19.3 0.00 0.38 0.38 60 1011.4
20260506220106 20 134 9.7 16.1 0.00 0.38 0.38 60 1011.3
20260506214553 20 132 9.7 20.9 0.00 0.38 0.38 60 1011.2
20260506213100 20 123 4.8 20.9 0.00 0.38 0.38 61 1011.3
20260506211550 20 109 3.2 16.1 0.00 0.38 0.38 61 1011.4
20260506210059 18 109 11.3 17.7 0.00 0.38 0.38 63 1011.5
20260506204550 18 118 6.4 14.5 0.00 0.38 0.38 66 1011.7
20260506203128 18 128 9.7 19.3 0.00 0.38 0.38 66 1011.9
20260506201546 17 169 9.7 19.3 0.00 0.38 0.38 69 1012.0
20260506200047 16 153 8.0 17.7 0.00 0.38 0.38 66 1012.2
20260506194540 16 117 9.7 20.9 0.00 0.38 0.38 68 1012.3
20260506193037 16 130 6.4 16.1 0.00 0.38 0.38 71 1012.6
20260506191534 15 94 6.4 20.9 0.00 0.38 0.38 70 1012.6
20260506190044 15 145 12.9 20.9 0.00 0.38 0.38 68 1012.6
20260506184531 15 84 8.0 17.7 0.00 0.38 0.38 72 1012.7
20260506183030 14 128 12.9 22.5 0.00 0.38 0.38 72 1012.9
20260506181530 13 122 9.7 20.9 0.00 0.38 0.38 75 1013.0
20260506180028 13 113 8.0 19.3 0.00 0.38 0.38 77 1012.9
20260506174528 12 94 8.0 16.1 0.00 0.38 0.38 78 1013.2
20260506173032 12 107 6.4 20.9 0.00 0.38 0.38 82 1013.1
20260506171525 11 69 9.7 22.5 0.00 0.38 0.38 82 1013.2
20260506170024 11 121 6.4 24.1 0.00 0.38 0.38 83 1013.1
20260506164524 11 94 4.8 24.1 0.00 0.38 0.38 84 1012.9
20260506163039 11 90 9.7 22.5 0.00 0.38 0.38 86 1012.8
20260506161526 10 115 9.7 17.7 0.00 0.38 0.38 87 1012.8
20260506160023 10 82 8.0 24.1 0.00 0.38 0.38 89 1012.6
20260506154530 9 97 8.0 22.5 0.00 0.38 0.38 89 1012.3
20260506153022 10 121 14.5 24.1 0.00 0.38 0.38 90 1012.1
20260506151519 10 104 9.7 37.0 0.00 0.38 0.38 90 1011.9
20260506150018 9 134 9.7 27.4 0.03 0.38 0.38 91 1011.3
20260506144517 9 107 16.1 29.0 0.10 0.38 0.38 91 1011.4
20260506143016 9 136 12.9 25.7 0.15 0.38 0.38 91 1011.4
20260506141513 9 130 12.9 24.1 0.15 0.38 0.38 91 1011.3
20260506140018 9 122 9.7 19.3 0.23 0.36 0.36 91 1012.2
20260506134510 8 107 4.8 12.9 0.18 0.28 0.28 90 1013.1
20260506133007 8 90 3.2 19.3 0.18 0.23 0.23 90 1012.9
20260506131505 8 109 12.9 19.3 0.23 0.23 0.23 89 1011.5
20260506130003 8 107 3.2 12.9 0.13 0.13 0.13 89 1012.0
20260506124501 8 95 9.7 22.5 0.10 0.10 0.10 88 1010.7
20260506123112 9 136 11.3 19.3 0.05 0.05 0.05 87 1011.0
20260506121611 9 103 6.4 22.5 0.00 0.00 0.00 86 1011.8
20260506120052 9 132 6.4 27.4 0.00 0.00 0.00 85 1009.8
20260506114550 10 95 14.5 25.7 0.00 0.00 0.00 85 1009.7
20260506113047 10 71 8.0 24.1 0.00 0.00 0.00 84 1009.8
20260506111544 10 137 9.7 22.5 0.00 0.00 0.00 85 1009.9
20260506110043 10 130 9.7 22.5 0.00 0.00 0.00 85 1009.7
20260506104541 10 117 8.0 24.1 0.00 0.00 0.00 85 1009.6
20260506103038 10 132 8.0 16.1 0.00 0.00 0.00 85 1009.4
20260506101535 10 98 6.4 16.1 0.00 0.00 0.00 85 1009.2
20260506100036 10 101 4.8 17.7 0.00 0.00 0.00 85 1008.6
20260506094530 10 127 9.7 19.3 0.00 0.00 0.00 86 1008.2
20260506093027 10 119 8.0 14.5 0.00 0.00 0.00 86 1008.2
20260506091524 10 101 6.4 16.1 0.00 0.00 0.00 86 1008.2
20260506090024 10 124 6.4 14.5 0.00 0.00 0.00 86 1008.0
20260506084530 10 105 6.4 12.9 0.00 0.00 0.00 86 1007.9
20260506083024 10 111 4.8 14.5 0.00 0.00 0.00 86 1007.8
20260506081516 10 119 6.4 12.9 0.00 0.00 0.00 85 1008.0
20260506073009 11 100 8.0 19.3 0.00 0.00 0.00 84 1007.6
20260506071505 11 113 6.4 19.3 0.00 0.00 0.00 84 1007.7
20260506061554 12 106 6.4 16.1 0.00 0.00 0.00 81 1007.4
20260506044532 15 134 11.3 24.1 0.00 0.00 0.00 73 1006.8
20260506043029 16 129 11.3 22.5 0.00 0.00 0.00 71 1006.8
20260506041536 16 139 6.4 14.5 0.00 0.00 0.00 71 1006.5
20260506040021 17 120 12.9 20.9 0.00 0.00 0.00 69 1006.6
20260506034528 17 139 8.0 20.9 0.00 0.00 0.00 67 1006.4
20260506033016 17 139 12.9 27.4 0.00 0.00 0.00 66 1006.2